User: anonymous   Login
Location: *
(51.1248°S, 108.4023°W)
Time: 15:29:20
(UTC+00:00)
Language:

H-2A R/B - Orbit

View from above orbital plane
View from above orbital plane
View from above satellite
View from above satellite

Ground track
Ground track

The orbit data is extracted from the following two-line orbital elements,

1 38341U 12025E   21262.77341067  .00000192  00000-0  29996-4 0  9998
2 38341  98.5274  94.7238 0054912 195.4461 164.5078 14.84273556505499
Epoch (UTC): 19 September 2021 18:33:42
Eccentricity: 0.0054912
inclination: 98.5274°
perigee height: 577 km
apogee height: 654 km
right ascension of ascending node: 94.7238°
argument of perigee: 195.4461°
revolutions per day: 14.84273556
mean anomaly at epoch: 164.5078°
orbit number at epoch: 50549

The dashed part of the orbit path shows where the satellite is in the earth's shadow,  

DLR